Simultaneous Nadir Overpasses (SNOs) Predictions

Prediction of SNOs between METOP-B and TERRA Satellite Orbit:

Table of predicted SNOs for the next 14.0 days since TLE Epoch: 5/29/2016
Index Date (METOP-B) Time (METOP-B) Lat,Lon (METOP-B) SZA (METOP-B ) Date (TERRA) Time (TERRA) Lat,Lon (TERRA) SZA (TERRA ) Distance(km) Time Diff (sec)
1 05/29/2016 02:04:02 81.28,-163.92 62.60 05/29/2016 02:03:30 81.28,-163.97 62.58 0.84 32
2 05/31/2016 20:47:46 -81.27, 94.60 117.88 05/31/2016 20:48:21 -81.26, 94.56 117.87 0.97 35
3 05/31/2016 21:38:26 81.27, -97.76 62.16 05/31/2016 21:37:47 81.27, -97.65 62.15 1.85 39
4 06/03/2016 16:22:08 -81.27, 161.12 118.23 06/03/2016 16:22:36 -81.27, 161.22 118.20 1.67 28
5 06/03/2016 17:12:47 81.28, -30.84 61.86 06/03/2016 17:12:02 81.28, -31.02 61.82 3.07 45
6 06/
